Zurück zum Katalog

COSMOS 839 DEB

AktivLEO
NORAD 20283·DEBRIS·🇷🇺 Russia

Gestartet Jul 8, 1976 von Plesetsk Cosmodrome

Loading…

Nächste Überflüge (nächste 24 Stunden)

TLE

AktuellSource: Space-Track

Epoche: Sep 13, 2026, 22:12 UTC

1 20283U 76067BW  26256.92501660  .00000584  00000-0  21016-2 0  9990
2 20283  65.7053 192.0604 0629884 147.1682 286.2058 12.48328932695565

Verfolge COSMOS 839 DEB in Echtzeit mit AllMySat

Download on the App Store